Fort Morgan, CO

3:59 PM MDT on September 19, 2017 (GMT -0600)
Fort Morgan

Weather History for KFMM - November, 2012

Change the Weather History Date:

Sunday, November 18, 2012

  Actual Average (KAKO) Record (KAKO)
Temperature  
Mean Temperature 46 °F -  
Max Temperature 64 °F 47 °F 76 °F (2008)
Min Temperature 28 °F 23 °F 1 °F (1955)
Degree Days  
Heating Degree Days 19    
Moisture  
Dew Point 28 °F    
Average Humidity 58    
Maximum Humidity 94    
Minimum Humidity 22    
Precipitation  
Precipitation 0.00 in - - ()
Sea Level Pressure  
Sea Level Pressure 30.00 in    
Wind  
Wind Speed 6 mph ()    
Max Wind Speed 16 mph    
Max Gust Speed 24 mph    
Visibility 10.0 miles    
Events      
Averages and records for this station are not official NWS values.
T = Trace of Precipitation, MM = Missing Value Source: Averaged Metar Reports

Daily Weather History Graph

Daily Weather History Graph

Search for Another Location

Airport or City:

Trip Planner

Search our weather history database for the weather conditions in past years. The results will help you decide how hot, cold, wet, or windy it might be!

Date:

Astronomy

Nov. 18, 2012 Rise Set
Actual Time 6:45 AM MST 4:35 PM MST
Civil Twilight 6:15 AM MST 5:04 PM MST
Nautical Twilight 5:42 AM MST 5:37 PM MST
Astronomical Twilight 5:10 AM MST 6:10 PM MST
Moon 11:13 AM MST (11/18) 9:57 PM MST (11/18)
Length of Visible Light 10h 49m
Length of Day
9h 50m
Waxing Crescent, 31% of the Moon is Illuminated
Nov 18
Waxing Crescent
Nov 20
First Quarter
Nov 28
Full
Dec 6
Last Quarter
Dec 13
New

Hourly Weather History & Observations

Time (MST) Temp. Windchill Dew Point Humidity Pressure Visibility Wind Dir Wind Speed Gust Speed Precip Events Conditions
12:15 AM 42.1 °F - 27.5 °F 56% 30.03 in 10.0 mi Calm Calm - N/A   Clear
12:35 AM 42.1 °F 40.2 °F 27.3 °F 56% 30.03 in 10.0 mi SSW 3.5 mph - N/A   Clear
12:55 AM 41.5 °F - 27.3 °F 57% 30.02 in 10.0 mi Calm Calm - N/A   Clear
1:15 AM 42.1 °F 40.2 °F 27.1 °F 55% 30.02 in 10.0 mi SSE 3.5 mph - N/A   Clear
1:35 AM 41.5 °F - 27.1 °F 57% 30.01 in 10.0 mi Calm Calm - N/A   Clear
1:55 AM 35.8 °F 33.0 °F 27.3 °F 71% 30.01 in 10.0 mi East 3.5 mph - N/A   Clear
2:15 AM 34.7 °F 31.8 °F 27.9 °F 76% 30.01 in 10.0 mi West 3.5 mph - N/A   Clear
2:35 AM 33.4 °F 26.6 °F 28.6 °F 82% 30.01 in 10.0 mi West 8.1 mph - N/A   Clear
2:55 AM 32.7 °F 25.0 °F 28.2 °F 83% 30.00 in 10.0 mi West 9.2 mph - N/A   Clear
3:15 AM 32.4 °F 26.9 °F 27.9 °F 83% 30.00 in 10.0 mi WNW 5.8 mph - N/A   Clear
3:35 AM 35.8 °F 33.0 °F 28.0 °F 73% 29.98 in 10.0 mi West 3.5 mph - N/A   Clear
3:55 AM 31.6 °F 25.1 °F 26.2 °F 80% 29.98 in 10.0 mi NNE 6.9 mph - N/A   Clear
4:15 AM 30.2 °F - 26.1 °F 85% 29.99 in 10.0 mi Calm Calm - N/A   Clear
4:35 AM 30.7 °F - 27.3 °F 87% 29.99 in 10.0 mi Calm Calm - N/A   Clear
4:55 AM 29.1 °F 25.4 °F 25.2 °F 85% 29.99 in 10.0 mi WSW 3.5 mph - N/A   Clear
5:15 AM 28.4 °F 21.2 °F 25.0 °F 87% 29.99 in 10.0 mi West 6.9 mph - N/A   Clear
5:35 AM 28.9 °F 21.9 °F 26.4 °F 90% 29.99 in 10.0 mi West 6.9 mph - N/A   Clear
5:55 AM 28.4 °F 21.2 °F 26.6 °F 93% 29.99 in 10.0 mi West 6.9 mph - N/A   Clear
6:15 AM 29.1 °F 21.3 °F 27.5 °F 94% 29.98 in 10.0 mi West 8.1 mph - N/A   Clear
6:35 AM 30.0 °F 20.5 °F 28.2 °F 93% 29.98 in 10.0 mi West 11.5 mph - N/A   Clear
6:55 AM 29.5 °F 19.3 °F 27.9 °F 94% 29.98 in 10.0 mi West 12.7 mph - N/A   Clear
7:15 AM 30.2 °F 21.9 °F 28.2 °F 92% 29.99 in 10.0 mi West 9.2 mph - N/A   Clear
7:35 AM 32.2 °F 25.0 °F 29.7 °F 90% 30.00 in 10.0 mi West 8.1 mph - N/A   Clear
7:55 AM 34.3 °F 25.5 °F 30.6 °F 86% 30.00 in 10.0 mi West 12.7 mph - N/A   Clear
8:15 AM 35.8 °F 28.3 °F 30.7 °F 82% 30.00 in 10.0 mi West 10.4 mph - N/A   Clear
8:35 AM 39.6 °F 32.1 °F 31.3 °F 72% 30.00 in 10.0 mi West 12.7 mph - N/A   Clear
8:55 AM 43.3 °F 37.7 °F 31.6 °F 63% 30.00 in 10.0 mi WNW 10.4 mph - N/A   Clear
9:15 AM 48.0 °F - 31.6 °F 53% 30.00 in 10.0 mi West 9.2 mph - N/A   Clear
9:35 AM 50.2 °F - 31.6 °F 49% 30.00 in 10.0 mi West 8.1 mph - N/A   Clear
9:55 AM 51.1 °F - 31.6 °F 47% 30.00 in 10.0 mi West 6.9 mph - N/A   Clear
10:15 AM 52.5 °F - 32.0 °F 46% 30.00 in 10.0 mi WSW 8.1 mph - N/A   Clear
10:35 AM 51.4 °F - 32.0 °F 47% 30.00 in 10.0 mi West 9.2 mph - N/A   Clear
10:55 AM 53.6 °F - 32.0 °F 44% 29.99 in 10.0 mi WSW 5.8 mph - N/A   Clear
11:15 AM 55.8 °F - 32.5 °F 41% 29.98 in 10.0 mi WSW 8.1 mph - N/A   Clear
11:35 AM 58.8 °F - 32.0 °F 36% 29.96 in 10.0 mi WSW 11.5 mph - N/A   Clear
11:55 AM 60.1 °F - 32.0 °F 35% 29.96 in 10.0 mi WSW 10.4 mph - N/A   Clear
12:15 PM 62.2 °F - 30.7 °F 31% 29.96 in 10.0 mi WSW 11.5 mph - N/A   Clear
12:35 PM 63.3 °F - 29.3 °F 28% 29.95 in 10.0 mi West 15.0 mph 20.7 mph N/A   Clear
12:55 PM 64.0 °F - 28.0 °F 26% 29.95 in 10.0 mi West 13.8 mph 18.4 mph N/A   Clear
1:15 PM 64.4 °F - 28.4 °F 26% 29.95 in 10.0 mi West 13.8 mph - N/A   Clear
1:35 PM 64.6 °F - 27.3 °F 25% 29.95 in 10.0 mi West 16.1 mph 23.0 mph N/A   Clear
1:55 PM 64.4 °F - 27.9 °F 25% 29.95 in 10.0 mi West 13.8 mph 24.2 mph N/A   Clear
2:15 PM 64.2 °F - 27.5 °F 25% 29.95 in 10.0 mi West 11.5 mph - N/A   Clear
2:35 PM 64.4 °F - 24.6 °F 22% 29.96 in 10.0 mi WNW 12.7 mph 19.6 mph N/A   Clear
2:55 PM 63.9 °F - 24.4 °F 22% 29.96 in 10.0 mi WNW 12.7 mph - N/A   Clear
3:15 PM 63.5 °F - 25.2 °F 23% 29.96 in 10.0 mi WNW 11.5 mph - N/A   Clear
3:35 PM 62.6 °F - 24.4 °F 23% 29.96 in 10.0 mi West 8.1 mph - N/A   Clear
3:55 PM 60.6 °F - 25.3 °F 26% 29.97 in 10.0 mi WNW 5.8 mph - N/A   Clear
4:15 PM 57.2 °F - 26.4 °F 31% 29.97 in 10.0 mi WNW 5.8 mph - N/A   Clear
4:35 PM 54.7 °F - 25.9 °F 33% 29.97 in 10.0 mi WNW 5.8 mph - N/A   Clear
4:55 PM 49.6 °F - 26.1 °F 40% 29.98 in 10.0 mi West 4.6 mph - N/A   Clear
5:15 PM 50.9 °F - 25.7 °F 38% 29.98 in 10.0 mi West 3.5 mph - N/A   Clear
5:35 PM 52.0 °F - 25.5 °F 36% 30.00 in 10.0 mi West 4.6 mph - N/A   Clear
5:55 PM 50.0 °F - 26.6 °F 40% 30.00 in 10.0 mi West 5.8 mph - N/A   Clear
6:15 PM 47.7 °F - 27.0 °F 45% 30.01 in 10.0 mi West 5.8 mph - N/A   Clear
6:35 PM 48.4 °F - 27.1 °F 44% 30.01 in 10.0 mi West 6.9 mph - N/A   Clear
6:55 PM 43.7 °F 39.7 °F 28.0 °F 54% 30.02 in 10.0 mi WNW 6.9 mph - N/A   Clear
7:15 PM 44.2 °F 37.6 °F 28.9 °F 55% 30.02 in 10.0 mi NNW 13.8 mph - N/A   Clear
7:35 PM 45.9 °F 40.0 °F 28.4 °F 51% 30.02 in 10.0 mi NNW 12.7 mph - N/A   Clear
7:55 PM 43.2 °F - 28.4 °F 56% 30.03 in 10.0 mi Calm Calm - N/A   Clear
8:15 PM 47.1 °F - 28.6 °F 49% 30.04 in 10.0 mi West 5.8 mph - N/A   Clear
8:35 PM 41.2 °F 37.3 °F 29.1 °F 62% 30.05 in 10.0 mi West 5.8 mph - N/A   Clear
8:55 PM 41.0 °F 37.1 °F 29.3 °F 63% 30.05 in 10.0 mi WSW 5.8 mph - N/A   Clear
9:15 PM 36.1 °F - 28.4 °F 73% 30.06 in 10.0 mi Calm Calm - N/A   Clear
9:35 PM 38.7 °F - 29.1 °F 69% 30.06 in 10.0 mi Calm Calm - N/A   Clear
9:55 PM 36.1 °F 31.4 °F 28.4 °F 73% 30.07 in 10.0 mi West 5.8 mph - N/A   Clear
10:15 PM 37.9 °F 34.4 °F 29.1 °F 71% 30.07 in 10.0 mi WNW 4.6 mph - N/A   Clear
10:35 PM 36.5 °F 33.9 °F 28.8 °F 74% 30.08 in 10.0 mi West 3.5 mph - N/A   Clear
10:55 PM 36.7 °F 32.9 °F 28.4 °F 72% 30.07 in 10.0 mi West 4.6 mph - N/A   Clear
11:15 PM 36.3 °F 32.5 °F 28.9 °F 75% 30.08 in 10.0 mi SW 4.6 mph - N/A   Clear
11:35 PM 35.4 °F 32.6 °F 28.6 °F 76% 30.09 in 10.0 mi West 3.5 mph - N/A   Clear
11:55 PM 32.7 °F 27.3 °F 27.7 °F 82% 30.09 in 10.0 mi West 5.8 mph - N/A   Clear